Location: Alta
(39.2070°N, 120.8111°W)
Time: 19:03:47
(UTC+00:00)

X-37B - Visible Passes

Search period start: 09 December 2022 00:00
Search period end: 19 December 2022 00:00
Orbit: 277 x 277 km, 45.0° (Epoch: 01 November)

Date Brightness Start Highest point End Pass type
(mag) Time Alt. Az. Time Alt. Az. Time Alt. Az.
09 Dec 2.6 02:32:35 10° W 02:33:37 19° WNW 02:33:37 19° WNW visible
10 Dec 2.8 02:33:32 10° WNW 02:34:18 16° NW 02:34:18 16° NW visible
11 Dec 3.0 02:34:29 10° WNW 02:34:57 13° NW 02:34:57 13° NW visible
12 Dec 3.2 02:35:22 10° NW 02:35:35 11° NW 02:35:35 11° NW visible
13 Dec 3.2 02:36:08 10° NW 02:36:14 11° NW 02:36:14 11° NW visible
14 Dec 3.2 02:36:50 10° NW 02:36:55 11° NW 02:36:55 11° NW visible
15 Dec 3.2 02:37:27 10° NW 02:37:39 11° NW 02:37:39 11° NW visible
16 Dec 3.0 02:38:04 10° WNW 02:38:28 13° NW 02:38:28 13° NW visible
17 Dec 2.9 02:38:44 10° WNW 02:39:24 16° WNW 02:39:24 16° WNW visible
18 Dec 2.8 02:39:30 10° WNW 02:40:30 20° W 02:40:30 20° W visible
